Stations météo

réclame
Mon MeteoGroup
Rimini, Italie (16149): Température de l'air & dewpoint: 12.01.2019 13:00:00 - 18.01.2019 13:00:00 (CET)Rimini, Italie (16149): Vitesse du vent: 12.01.2019 13:00:00 - 18.01.2019 13:00:00 (CET)Rimini, Italie (16149): Direction du vent: 12.01.2019 13:00:00 - 18.01.2019 13:00:00 (CET)Rimini, Italie (16149): reduced air pressure: 12.01.2019 13:00:00 - 18.01.2019 13:00:00 (CET)Rimini, Italie (16149): visibility: 12.01.2019 13:00:00 - 18.01.2019 13:00:00 (CET)Rimini, Italie (16149): Quantités de précipitations: 12.01.2019 13:00:00 - 18.01.2019 13:00:00 (CET)
Date & Time tt [°C] td [°C] ff [km/h] ff [knt] dd ppp [hPa] vv [km] rr [mm]
18.01.2019 13:00:00 6,4 5,4 4 2 - 1013,1 2,5 -
18.01.2019 12:00:00 7,0 5,0 5 3 WNW - 3,5 -
18.01.2019 11:00:00 7,0 4,0 5 3 W - 4,0 -
18.01.2019 10:00:00 6,4 4,6 4 2 - 1012,2 3,0 0,0
18.01.2019 09:00:00 5,0 4,0 5 3 WSW - 3,5 -
18.01.2019 08:00:00 5,0 4,0 8 4 WSW - 5 -
18.01.2019 07:00:00 5,2 3,0 5 3 SSW 1010,4 6 -
18.01.2019 06:00:00 6,0 3,0 21 11 W - 8 -
18.01.2019 05:00:00 11,0 4,0 9 5 S - 10 -
18.01.2019 04:00:00 11,0 4,2 18 10 S 1009,2 10 0,0
18.01.2019 03:00:00 11,0 4,0 15 8 S - 10 -
18.01.2019 02:00:00 10,0 5,0 11 6 SSE - 10 -
18.01.2019 01:00:00 9,9 4,9 9 5 SSE 1010,4 10 -
18.01.2019 00:00:00 10,0 5,0 11 6 S - 10 -
17.01.2019 23:00:00 10,0 5,0 13 7 SSE - 10 -
17.01.2019 22:00:00 10,4 5,0 9 5 SSE 1011,7 10 0,0
17.01.2019 21:00:00 10,0 5,0 13 7 SSE - 10 -
17.01.2019 20:00:00 11,0 5,0 13 7 SSE - 10 -
17.01.2019 19:00:00 11,5 4,8 13 7 S 1012,3 10 -
17.01.2019 18:00:00 12,0 5,0 15 8 S - 10 -
17.01.2019 17:00:00 11,0 3,0 8 4 SE - 10 -
17.01.2019 16:00:00 10,9 4,7 9 5 ESE 1013,4 10 0,0
17.01.2019 15:00:00 12,0 5,0 5 3 SSE - 10 -
17.01.2019 14:00:00 12,0 5,0 15 8 S - 10 -
17.01.2019 13:00:00 11,6 5,0 18 10 S 1015,2 10 -
17.01.2019 12:00:00 12,0 4,0 13 7 SSE - 10 -
17.01.2019 11:00:00 11,0 3,0 15 8 S - 10 -
17.01.2019 10:00:00 10,8 2,5 11 6 S 1017,1 10 0,0
17.01.2019 09:00:00 11,0 2,0 11 6 S - 10 -
17.01.2019 08:00:00 9,0 2,0 8 4 SSE - 10 -
17.01.2019 07:00:00 9,3 2,0 18 10 S 1017,1 10 -
17.01.2019 06:00:00 9,0 2,0 15 8 S - 10 -
17.01.2019 05:00:00 10,0 2,0 16 9 S - 10 -
17.01.2019 04:00:00 9,8 2,4 15 8 S 1018,0 10 0,0
17.01.2019 03:00:00 10,0 2,0 16 9 S - 10 -
17.01.2019 02:00:00 11,0 3,0 15 8 S - 10 -
17.01.2019 01:00:00 11,0 2,8 13 7 S 1018,8 10 -
17.01.2019 00:00:00 11,0 3,0 13 7 S - 10 -
16.01.2019 23:00:00 10,0 3,0 11 6 SSE - 10 -
16.01.2019 22:00:00 10,4 3,2 11 6 SSE 1019,7 10 0,0
16.01.2019 21:00:00 9,0 3,0 8 4 S - 10 -
16.01.2019 20:00:00 4,0 0,0 4 2 - - 10 -
16.01.2019 19:00:00 7,3 0,5 4 2 SSE 1019,2 10 -
16.01.2019 18:00:00 9,0 0,0 5 3 S - 10 -
16.01.2019 17:00:00 13,0 1,0 21 11 SSW - 10 -
16.01.2019 16:00:00 14,2 -0,7 22 12 SW 1019,0 10 0,0
16.01.2019 15:00:00 15,0 -3,0 22 12 SW - 10 -
16.01.2019 14:00:00 16,0 -4,0 18 10 WSW - 10 -
16.01.2019 13:00:00 15,9 -3,7 21 11 WSW 1019,4 10 -
16.01.2019 12:00:00 15,0 -2,0 5 3 - - 10 -
16.01.2019 11:00:00 13,0 -1,0 11 6 S - 10 -
16.01.2019 10:00:00 11,3 -0,3 11 6 S 1020,9 10 0,0
16.01.2019 09:00:00 7,0 -1,0 8 4 S - 10 -
16.01.2019 08:00:00 -1,0 -3,0 4 2 - - 10 -
16.01.2019 07:00:00 -0,9 -3,0 5 3 S 1020,2 10 -
16.01.2019 06:00:00 -1,0 -3,0 4 2 - - 10 -
16.01.2019 05:00:00 2,0 -2,0 2 1 - - 10 -
16.01.2019 04:00:00 0,8 -4,2 2 1 - 1019,8 10 0,0
16.01.2019 03:00:00 6,0 -3,0 8 4 S - 10 -
16.01.2019 02:00:00 0,0 -5,0 11 6 SSW - 10 -
16.01.2019 01:00:00 0,7 -5,7 5 3 S 1020,1 10 -
16.01.2019 00:00:00 -1,0 -5,0 5 3 S - 10 -
15.01.2019 23:00:00 1,0 -5,0 8 4 S - 10 -
15.01.2019 22:00:00 0,3 -5,1 4 2 S 1019,8 10 0,0
15.01.2019 21:00:00 1,0 -4,0 8 4 S - 10 -
15.01.2019 20:00:00 4,0 -4,0 4 2 S - 10 -
15.01.2019 19:00:00 5,9 -3,1 9 5 ESE 1018,9 10 -
15.01.2019 18:00:00 8,0 -2,0 9 5 ESE - 10 -
15.01.2019 17:00:00 9,0 0,0 13 7 E - 10 -
15.01.2019 16:00:00 9,8 -1,1 15 8 E 1018,5 10 0,0
15.01.2019 15:00:00 10,0 -1,0 13 7 E - 10 -
15.01.2019 14:00:00 11,0 -3,0 11 6 ENE - 10 -
15.01.2019 13:00:00 10,6 -2,3 9 5 NE 1019,0 10 -
15.01.2019 12:00:00 12,0 -3,0 4 2 - - 10 -
15.01.2019 11:00:00 11,0 -4,0 8 4 SW - 10 -
15.01.2019 10:00:00 8,6 -2,0 5 3 S 1018,6 10 0,0
15.01.2019 09:00:00 3,0 -3,0 9 5 SSW - 10 -
15.01.2019 08:00:00 0,0 -5,0 8 4 S - 10 -
15.01.2019 07:00:00 0,4 -4,4 5 3 S 1016,3 10 -
15.01.2019 06:00:00 0,0 -4,0 5 3 SSW - 10 -
15.01.2019 05:00:00 1,0 -4,0 5 3 SSW - 10 -
15.01.2019 04:00:00 1,6 -4,9 8 4 S 1014,8 10 0,0
15.01.2019 03:00:00 4,0 -5,0 8 4 SW - 10 -
15.01.2019 02:00:00 4,0 -4,0 13 7 W - 10 -
15.01.2019 01:00:00 4,1 -5,1 16 9 WNW 1012,6 10 -
15.01.2019 00:00:00 6,0 -5,0 24 13 W - 10 -
14.01.2019 23:00:00 5,0 -5,0 16 9 WNW - 8 -
14.01.2019 22:00:00 6,5 -5,7 18 10 WNW 1008,4 8 0,0
14.01.2019 21:00:00 8,0 -4,0 18 10 W - 8 -
14.01.2019 20:00:00 6,0 -2,0 18 10 WNW - 8 -
14.01.2019 19:00:00 3,0 0,9 8 4 S 1005,3 5 -
14.01.2019 18:00:00 5,0 3,0 4 2 - - 6 -
14.01.2019 17:00:00 8,0 2,0 4 2 - - 8 -
14.01.2019 16:00:00 9,6 2,5 4 2 - 1004,1 8 0,0
14.01.2019 15:00:00 9,0 3,0 8 4 NNE - 10 -
14.01.2019 14:00:00 9,0 3,0 11 6 N - 10 -
14.01.2019 13:00:00 10,8 1,6 18 10 WNW 1003,6 8 -
14.01.2019 12:00:00 8,0 0,0 21 11 WNW - 8 -
14.01.2019 11:00:00 7,0 0,0 21 11 NW - 8 -
14.01.2019 10:00:00 6,2 0,4 22 12 NW 1003,3 10 0,0
14.01.2019 09:00:00 4,0 1,0 15 8 WSW - 7 -
14.01.2019 08:00:00 1,0 -1,0 13 7 W - 7 -
14.01.2019 07:00:00 0,2 -1,1 5 3 SW 999,8 7 -
14.01.2019 06:00:00 2,0 0,0 2 1 - - 10 -
14.01.2019 05:00:00 4,0 1,0 5 3 S - 10 -
14.01.2019 04:00:00 4,5 2,5 9 5 NNW 999,9 10 0,0
14.01.2019 03:00:00 4,0 2,0 9 5 NNW - 10 -
14.01.2019 02:00:00 3,0 0,0 5 3 NNW - 10 -
14.01.2019 01:00:00 4,3 1,2 2 1 - 1000,9 10 -
14.01.2019 00:00:00 4,0 1,0 4 2 - - 10 -
13.01.2019 23:00:00 3,0 0,0 4 2 SSW - 10 -
13.01.2019 22:00:00 2,4 -0,4 4 2 - 1004,8 10 0,0
13.01.2019 21:00:00 1,0 -2,0 2 1 - - 10 -
13.01.2019 20:00:00 1,0 -2,0 4 2 - - 8 -
13.01.2019 19:00:00 2,8 -0,6 4 2 SSE 1007,4 8 -
13.01.2019 18:00:00 3,0 -1,0 4 2 ESE - 7 -
13.01.2019 17:00:00 5,0 0,0 5 3 ESE - 8 -
13.01.2019 16:00:00 5,7 -0,2 5 3 E 1009,5 8 0,0
13.01.2019 15:00:00 6,0 0,0 8 4 NE - 10 -
13.01.2019 14:00:00 7,0 -2,0 13 7 N - 10 -
13.01.2019 13:00:00 7,1 -1,7 11 6 N 1011,4 10 -
13.01.2019 12:00:00 7,0 -4,0 13 7 W - 10 -
13.01.2019 11:00:00 6,0 -3,0 13 7 W - 10 -
13.01.2019 10:00:00 3,4 -3,2 9 5 W 1013,3 10 0,0
13.01.2019 09:00:00 0,0 -4,0 9 5 W - 10 -
13.01.2019 08:00:00 -1,0 -4,0 8 4 W - 10 -
13.01.2019 07:00:00 0,6 -3,1 5 3 W 1011,9 10 -
13.01.2019 06:00:00 2,0 -2,0 9 5 WSW - 10 -
13.01.2019 05:00:00 - - - - - - - -
13.01.2019 04:00:00 1,0 -3,7 4 2 - 1011,7 10 0,0
13.01.2019 03:00:00 0,0 -4,0 5 3 S - 10 -
13.01.2019 02:00:00 -1,0 -4,0 2 1 - - 10 -
13.01.2019 01:00:00 -1,2 -4,9 5 3 SW 1013,1 10 -
13.01.2019 00:00:00 -2,0 -6,0 4 2 - - 10 -
12.01.2019 23:00:00 -2,0 -6,0 5 3 W - 10 -
12.01.2019 22:00:00 -2,0 -6,2 4 2 - 1014,6 10 0,0
12.01.2019 21:00:00 -1,0 -5,0 4 2 S - 10 -
12.01.2019 20:00:00 0,0 -5,0 4 2 - - 10 -
12.01.2019 19:00:00 1,1 -4,3 5 3 SSW 1016,7 10 -
12.01.2019 18:00:00 3,0 -3,0 4 2 - - 10 -
12.01.2019 17:00:00 6,0 -1,0 8 4 ENE - 10 -
12.01.2019 16:00:00 8,0 -4,2 8 4 E 1017,7 10 0,0
12.01.2019 15:00:00 8,0 -3,0 11 6 E - 10 -
12.01.2019 14:00:00 8,0 -6,0 9 5 ENE - 10 -
12.01.2019 13:00:00 8,1 -7,8 9 5 NE 1018,9 10 -

tt = Température de l'air
td = dewpoint
ff = Vitesse du vent
dd = Direction du vent
ppp = reduced air pressure
vv = visibility
rr = Quantités de précipitations

stations d'obs. à proximité